Location: Unspecified
(0.0000°N, 0.0000°E)
Time: 16:28:46
(UTC+00:00)

A-11 Canister half - All Passes

Search period start: 22 June 2017 00:00
Search period end: 02 July 2017 00:00
Orbit: 1525 x 1684 km, 47.3° (Epoch: 21 June)

Date Brightness Start Highest point End Pass type
(mag) Time Alt. Az. Time Alt. Az. Time Alt. Az.
22 Jun - 05:41:17 10° S 05:49:01 25° SE 05:56:31 10° E daylight
22 Jun - 07:44:15 10° SW 07:54:07 70° NW 08:03:39 10° NNE daylight
22 Jun - 09:56:17 10° WNW 09:59:28 12° NW 10:02:38 10° NNW daylight
22 Jun - 18:31:00 10° NNW 18:40:07 53° NE 18:49:32 10° SE visible
22 Jun - 20:36:43 10° WNW 20:45:02 33° SW 20:53:39 10° SSE visible
23 Jun - 05:19:55 10° S 05:27:22 23° SE 05:34:36 10° E visible
23 Jun - 07:22:35 10° SW 07:32:32 75° NW 07:42:06 10° NNE daylight
23 Jun - 09:33:42 10° WNW 09:37:48 13° NW 09:41:52 10° NNW daylight
23 Jun - 18:09:31 10° NNW 18:18:31 49° NE 18:27:48 10° ESE visible
23 Jun - 20:14:57 10° WNW 20:23:25 36° SW 20:32:11 10° SSE visible
24 Jun - 04:58:35 10° S 05:05:42 21° SE 05:12:39 10° E visible
24 Jun - 07:00:56 10° SW 07:10:56 80° NW 07:20:34 10° NE daylight
24 Jun - 09:11:19 10° WNW 09:16:08 15° NW 09:20:55 10° NNW daylight
24 Jun - 17:48:04 10° NNW 17:56:56 46° NE 18:06:03 10° ESE daylight
24 Jun - 19:53:11 10° WNW 20:01:47 38° SW 20:10:43 10° SSE visible
25 Jun - 04:37:16 10° S 04:44:02 20° SE 04:50:39 10° E visible
25 Jun - 06:39:17 10° SW 06:49:19 85° NW 06:59:00 10° NE daylight
25 Jun - 08:49:03 10° W 08:54:29 16° NW 08:59:52 10° NNW daylight
25 Jun - 17:26:37 10° NNW 17:35:20 43° NE 17:44:17 10° ESE daylight
25 Jun - 19:31:27 10° WNW 19:40:10 41° SW 19:49:14 10° SSE visible
26 Jun - 04:16:00 10° S 04:22:22 18° SE 04:28:36 10° E visible
26 Jun - 06:17:39 10° SW 06:27:44 90° E 06:37:26 10° NE daylight
26 Jun - 08:26:52 10° W 08:32:50 18° NW 08:38:44 10° N daylight
26 Jun - 17:05:11 10° NNW 17:13:45 39° NE 17:22:31 10° ESE daylight
26 Jun - 19:09:44 10° WNW 19:18:34 44° SW 19:27:45 10° SSE visible
27 Jun - 03:54:45 10° S 04:00:41 17° SE 04:06:30 10° E visible
27 Jun - 05:56:02 10° SW 06:06:08 85° SE 06:15:51 10° NE daylight
27 Jun - 08:04:45 10° W 08:11:11 19° NW 08:17:33 10° N daylight
27 Jun - 16:43:46 10° NNW 16:52:08 37° NE 17:00:42 10° ESE daylight
27 Jun - 18:48:02 10° WNW 18:56:57 47° SW 19:06:14 10° SSE visible
28 Jun - 03:33:35 10° SSE 03:39:00 16° SE 03:44:20 10° ESE visible
28 Jun - 05:34:25 10° SW 05:44:31 80° SE 05:54:15 10° NE visible
28 Jun - 07:42:40 10° W 07:49:33 21° NW 07:56:19 10° N daylight
28 Jun - 16:22:22 10° NNW 16:30:33 34° NE 16:38:54 10° ESE daylight
28 Jun - 18:26:21 10° WNW 18:35:21 50° SW 18:44:43 10° SSE visible
29 Jun - 03:12:29 10° SSE 03:17:19 14° SE 03:22:04 10° ESE visible
29 Jun - 05:12:49 10° SW 05:22:54 75° SE 05:32:39 10° NE visible
29 Jun - 07:20:39 10° W 07:27:55 23° NW 07:35:03 10° N daylight
29 Jun - 16:00:59 10° N 16:08:57 31° NE 16:17:04 10° ESE daylight
29 Jun - 18:04:40 10° NW 18:13:45 54° SW 18:23:12 10° SSE daylight
30 Jun - 02:51:30 10° SSE 02:55:37 13° SE 02:59:41 10° ESE visible
30 Jun - 04:51:14 10° SSW 05:01:18 70° SE 05:11:02 10° NE visible
30 Jun - 06:58:41 10° W 07:06:17 25° NW 07:13:44 10° N daylight
30 Jun - 15:39:37 10° N 15:47:21 29° NE 15:55:12 10° ESE daylight
30 Jun - 17:43:01 10° NW 17:52:10 58° SW 18:01:39 10° SSE daylight
01 Jul - 02:30:42 10° SSE 02:33:54 12° SE 02:37:06 10° ESE visible
01 Jul - 04:29:39 10° SSW 04:39:41 66° SE 04:49:23 10° NE visible
01 Jul - 06:36:43 10° WSW 06:44:38 27° NW 06:52:24 10° N daylight
01 Jul - 15:18:16 10° N 15:25:45 27° NE 15:33:19 10° ESE daylight
01 Jul - 17:21:22 10° NW 17:30:34 62° SW 17:40:06 10° SSE daylight
01 Jul - 19:35:49 10° SW 19:36:19 10° SW 19:36:51 10° SW visible
